| time (UTC) | temp C | wind direction | speed KPH | gust KPH | rain 1hr cm | rain 24hr cm | rain mn cm | humidity % | barometer mb |
| 20260502170508 | 6 | 11 | 6.4 | 19.3 | 0.00 | 0.53 | 0.53 | 79 | 1011.0 |
| 20260502164007 | 6 | 352 | 8.0 | 19.3 | 0.00 | 0.53 | 0.53 | 78 | 1011.3 |
| 20260502163508 | 6 | 352 | 6.4 | 24.1 | 0.00 | 0.53 | 0.53 | 78 | 1011.3 |
| 20260502163038 | 6 | 322 | 11.3 | 27.4 | 0.00 | 0.53 | 0.53 | 78 | 1011.3 |
| 20260502162510 | 6 | 352 | 12.9 | 27.4 | 0.00 | 0.53 | 0.53 | 79 | 1011.4 |
| 20260502162007 | 6 | 342 | 6.4 | 17.7 | 0.00 | 0.53 | 0.53 | 81 | 1011.5 |
| 20260502161526 | 6 | 5 | 9.7 | 20.9 | 0.00 | 0.53 | 0.53 | 80 | 1011.5 |
| 20260502161008 | 6 | 319 | 8.0 | 20.9 | 0.00 | 0.53 | 0.53 | 79 | 1011.4 |
| 20260502160509 | 6 | 346 | 3.2 | 20.9 | 0.00 | 0.53 | 0.53 | 78 | 1011.4 |
| 20260502152009 | 6 | 25 | 6.4 | 25.7 | 0.00 | 0.53 | 0.53 | 85 | 1011.5 |
| 20260502151540 | 6 | 5 | 14.5 | 25.7 | 0.00 | 0.53 | 0.53 | 87 | 1011.5 |
| 20260502151010 | 6 | 270 | 8.0 | 19.3 | 0.00 | 0.53 | 0.53 | 87 | 1011.4 |
| 20260502150511 | 5 | 5 | 12.9 | 19.3 | 0.00 | 0.53 | 0.53 | 88 | 1011.4 |
| 20260502130510 | 7 | 301 | 1.6 | 6.4 | 0.00 | 0.53 | 0.53 | 89 | 1011.2 |
| 20260502123509 | 7 | 266 | 3.2 | 4.8 | 0.00 | 0.53 | 0.53 | 90 | 1011.1 |
| 20260502123035 | 7 | 249 | 1.6 | 9.7 | 0.00 | 0.53 | 0.53 | 90 | 1011.1 |
| 20260502122507 | 6 | 237 | 1.6 | 9.7 | 0.00 | 0.53 | 0.53 | 91 | 1011.3 |
| 20260502122013 | 6 | 191 | 1.6 | 8.0 | 0.00 | 0.53 | 0.53 | 91 | 1011.2 |
| 20260502121521 | 6 | 254 | 1.6 | 8.0 | 0.00 | 0.53 | 0.53 | 91 | 1011.1 |
| 20260502121004 | 6 | 234 | 3.2 | 9.7 | 0.00 | 0.53 | 0.53 | 92 | 1011.0 |
| 20260502120506 | 6 | 248 | 1.6 | 9.7 | 0.00 | 0.53 | 0.53 | 92 | 1011.1 |
| 20260502115503 | 6 | 182 | 3.2 | 8.0 | 0.00 | 0.53 | 0.53 | 92 | 1011.0 |
| 20260502115003 | 6 | 209 | 1.6 | 12.9 | 0.00 | 0.53 | 0.53 | 92 | 1011.2 |
| 20260502114508 | 6 | 212 | 4.8 | 12.9 | 0.03 | 0.53 | 0.53 | 92 | 1011.1 |
| 20260502114004 | 6 | 211 | 4.8 | 8.0 | 0.05 | 0.53 | 0.53 | 92 | 1011.2 |
| 20260502113508 | 6 | 213 | 1.6 | 8.0 | 0.05 | 0.53 | 0.53 | 92 | 1011.3 |
| 20260502113014 | 6 | 184 | 4.8 | 8.0 | 0.08 | 0.53 | 0.53 | 92 | 1011.2 |
| 20260502112504 | 6 | 202 | 1.6 | 6.4 | 0.08 | 0.53 | 0.53 | 92 | 1011.0 |
| 20260502112006 | 6 | 189 | 3.2 | 4.8 | 0.08 | 0.53 | 0.53 | 92 | 1011.0 |
| 20260502111525 | 6 | 210 | 1.6 | 4.8 | 0.08 | 0.53 | 0.53 | 92 | 1010.9 |
| 20260502111007 | 6 | 180 | 3.2 | 4.8 | 0.08 | 0.53 | 0.53 | 92 | 1010.9 |
| 20260502110506 | 6 | 207 | 0.0 | 4.8 | 0.08 | 0.53 | 0.53 | 93 | 1011.0 |
| 20260502110024 | 5 | 207 | 1.6 | 4.8 | 0.08 | 0.53 | 0.53 | 92 | 1011.0 |
| 20260502105504 | 5 | 213 | 3.2 | 6.4 | 0.08 | 0.53 | 0.53 | 92 | 1011.0 |
| 20260502105003 | 5 | 188 | 3.2 | 6.4 | 0.08 | 0.53 | 0.53 | 92 | 1011.1 |
| 20260502104508 | 5 | 186 | 4.8 | 9.7 | 0.05 | 0.51 | 0.51 | 92 | 1011.1 |
| 20260502104004 | 5 | 229 | 4.8 | 9.7 | 0.05 | 0.48 | 0.48 | 92 | 1011.2 |
| 20260502103504 | 5 | 204 | 4.8 | 8.0 | 0.10 | 0.48 | 0.48 | 92 | 1011.1 |
| 20260502103011 | 5 | 189 | 3.2 | 8.0 | 0.15 | 0.46 | 0.46 | 92 | 1010.9 |
| 20260502102505 | 5 | 188 | 3.2 | 6.4 | 0.20 | 0.46 | 0.46 | 92 | 1010.8 |
| 20260502102005 | 5 | 171 | 4.8 | 8.0 | 0.23 | 0.46 | 0.46 | 92 | 1010.7 |
| 20260502101518 | 5 | 189 | 3.2 | 8.0 | 0.25 | 0.46 | 0.46 | 92 | 1010.6 |
| 20260502101006 | 5 | 181 | 4.8 | 6.4 | 0.25 | 0.46 | 0.46 | 92 | 1010.4 |
| 20260502100507 | 5 | 179 | 1.6 | 3.2 | 0.25 | 0.46 | 0.46 | 92 | 1010.3 |
| 20260502091516 | 5 | 5 | 0.0 | 0.0 | 0.00 | 0.20 | 0.20 | 91 | 1010.7 |
| 20260502091008 | 5 | 5 | 0.0 | 0.0 | 0.00 | 0.20 | 0.20 | 91 | 1010.6 |
| 20260502090505 | 6 | 5 | 0.0 | 0.0 | 0.00 | 0.20 | 0.20 | 91 | 1010.5 |
| 20260502071508 | 6 | 312 | 1.6 | 6.4 | 0.00 | 0.08 | 0.08 | 88 | 1011.0 |
| 20260502071005 | 6 | 304 | 3.2 | 6.4 | 0.03 | 0.08 | 0.08 | 88 | 1010.9 |
| 20260502070504 | 6 | 327 | 1.6 | 4.8 | 0.05 | 0.08 | 0.08 | 88 | 1010.9 |
| 20260502070015 | 6 | 315 | 1.6 | 3.2 | 0.05 | 0.08 | 0.08 | 88 | 1010.9 |
| 20260502065503 | 6 | 294 | 0.0 | 1.6 | 0.05 | 0.08 | 0.08 | 88 | 1011.0 |
| 20260502065007 | 6 | 299 | 0.0 | 0.0 | 0.05 | 0.08 | 0.08 | 88 | 1010.9 |
| 20260502064519 | 6 | 299 | 0.0 | 3.2 | 0.05 | 0.08 | 0.08 | 88 | 1010.8 |
| 20260502064012 | 6 | 299 | 0.0 | 3.2 | 0.05 | 0.08 | 0.08 | 88 | 1010.9 |
| 20260502063507 | 6 | 299 | 0.0 | 4.8 | 0.05 | 0.08 | 0.08 | 88 | 1010.7 |
| 20260502063023 | 6 | 299 | 0.0 | 6.4 | 0.05 | 0.08 | 0.08 | 87 | 1010.8 |
| 20260502062510 | 6 | 306 | 1.6 | 6.4 | 0.05 | 0.08 | 0.08 | 87 | 1010.8 |
| 20260502062010 | 6 | 349 | 1.6 | 4.8 | 0.05 | 0.08 | 0.08 | 87 | 1011.1 |
| 20260502061534 | 6 | 314 | 0.0 | 4.8 | 0.05 | 0.08 | 0.08 | 87 | 1011.2 |
| 20260502061008 | 6 | 291 | 1.6 | 4.8 | 0.03 | 0.05 | 0.05 | 87 | 1011.2 |
| 20260502060506 | 6 | 287 | 0.0 | 4.8 | 0.00 | 0.03 | 0.03 | 87 | 1011.1 |
| 20260502060009 | 6 | 277 | 0.0 | 6.4 | 0.00 | 0.03 | 0.03 | 87 | 1011.1 |
| 20260502055505 | 6 | 319 | 0.0 | 6.4 | 0.00 | 0.03 | 0.03 | 87 | 1011.0 |
| 20260502055006 | 6 | 326 | 0.0 | 3.2 | 0.00 | 0.03 | 0.03 | 87 | 1011.0 |
| 20260502054518 | 6 | 278 | 0.0 | 0.0 | 0.03 | 0.03 | 0.03 | 86 | 1011.1 |
| 20260502054007 | 6 | 203 | 0.0 | 0.0 | 0.03 | 0.03 | 0.03 | 86 | 1010.8 |
| 20260502053503 | 6 | 203 | 0.0 | 0.0 | 0.03 | 0.03 | 0.03 | 85 | 1010.9 |
| 20260502053022 | 6 | 203 | 0.0 | 0.0 | 0.03 | 0.03 | 0.03 | 85 | 1010.9 |
| 20260502052508 | 7 | 203 | 0.0 | 0.0 | 0.03 | 0.03 | 0.03 | 85 | 1010.9 |
| 20260502052008 | 7 | 203 | 0.0 | 0.0 | 0.03 | 0.03 | 0.03 | 84 | 1011.0 |
| 20260502051525 | 7 | 203 | 0.0 | 0.0 | 0.03 | 0.03 | 0.03 | 84 | 1011.0 |
| 20260502051003 | 7 | 203 | 0.0 | 0.0 | 0.03 | 0.03 | 0.03 | 84 | 1011.1 |
| 20260502050503 | 7 | 203 | 0.0 | 0.0 | 0.03 | 0.03 | 0.03 | 83 | 1011.1 |
| 20260502050010 | 7 | 203 | 0.0 | 3.2 | 0.03 | 0.03 | 0.03 | 83 | 1011.1 |
| 20260502045506 | 7 | 203 | 0.0 | 3.2 | 0.03 | 0.03 | 0.03 | 83 | 1011.3 |
| 20260502045004 | 7 | 203 | 0.0 | 0.0 | 0.03 | 0.03 | 0.03 | 82 | 1011.4 |
| 20260502044512 | 7 | 203 | 0.0 | 3.2 | 0.00 | 0.00 | 0.00 | 79 | 1011.6 |
| 20260502044008 | 7 | 203 | 0.0 | 3.2 | 0.00 | 0.00 | 0.00 | 79 | 1011.7 |
| 20260502043507 | 7 | 203 | 1.6 | 3.2 | 0.00 | 0.00 | 0.00 | 79 | 1011.5 |
| 20260502043004 | 7 | 203 | 0.0 | 4.8 | 0.00 | 0.00 | 0.00 | 79 | 1011.4 |
| 20260502042502 | 7 | 198 | 3.2 | 4.8 | 0.00 | 0.00 | 0.00 | 79 | 1011.3 |
| 20260502042004 | 7 | 275 | 0.0 | 0.0 | 0.00 | 0.00 | 0.00 | 79 | 1011.1 |
| 20260502041512 | 7 | 275 | 0.0 | 0.0 | 0.00 | 0.00 | 0.00 | 79 | 1011.3 |
| 20260502041003 | 7 | 275 | 0.0 | 0.0 | 0.00 | 0.00 | 0.00 | 78 | 1011.3 |
| 20260502040504 | 7 | 275 | 0.0 | 0.0 | 0.00 | 0.00 | 0.00 | 78 | 1011.2 |
| 20260502040012 | 7 | 275 | 0.0 | 0.0 | 0.00 | 0.00 | 0.00 | 78 | 1011.0 |
| 20260502035503 | 7 | 275 | 0.0 | 0.0 | 0.00 | 0.00 | 0.00 | 76 | 1011.1 |
| 20260502035005 | 7 | 275 | 0.0 | 0.0 | 0.00 | 0.00 | 0.00 | 74 | 1011.1 |
| 20260502034512 | 7 | 275 | 0.0 | 0.0 | 0.00 | 0.00 | 0.00 | 75 | 1011.0 |
| 20260502034004 | 7 | 275 | 0.0 | 0.0 | 0.00 | 0.00 | 0.00 | 75 | 1011.0 |
| 20260502033504 | 7 | 275 | 0.0 | 0.0 | 0.00 | 0.00 | 0.00 | 74 | 1011.2 |
| 20260502033024 | 7 | 275 | 0.0 | 0.0 | 0.00 | 0.00 | 0.00 | 74 | 1011.2 |
| 20260502032504 | 7 | 275 | 0.0 | 0.0 | 0.00 | 0.00 | 0.00 | 73 | 1011.2 |
| 20260502032007 | 7 | 275 | 0.0 | 0.0 | 0.00 | 0.00 | 0.00 | 73 | 1011.3 |
| 20260502031504 | 7 | 275 | 0.0 | 0.0 | 0.00 | 0.00 | 0.00 | 72 | 1011.3 |
| 20260502031003 | 7 | 275 | 0.0 | 0.0 | 0.00 | 0.00 | 0.00 | 72 | 1011.2 |
| 20260502030504 | 7 | 275 | 0.0 | 0.0 | 0.00 | 0.00 | 0.00 | 72 | 1011.2 |
| 20260502030006 | 7 | 274 | 0.0 | 0.0 | 0.00 | 0.00 | 0.00 | 71 | 1011.4 |
| 20260502025503 | 7 | 275 | 0.0 | 1.6 | 0.00 | 0.00 | 0.00 | 70 | 1011.4 |
| 20260502025003 | 7 | 275 | 0.0 | 1.6 | 0.00 | 0.00 | 0.00 | 70 | 1011.3 |
| 20260502024510 | 7 | 275 | 1.6 | 3.2 | 0.00 | 0.00 | 0.00 | 70 | 1011.4 |
| 20260502024006 | 7 | 275 | 0.0 | 3.2 | 0.00 | 0.00 | 0.00 | 70 | 1011.4 |
| 20260502023504 | 8 | 275 | 0.0 | 3.2 | 0.00 | 0.00 | 0.00 | 69 | 1011.4 |
| 20260502023014 | 8 | 275 | 0.0 | 3.2 | 0.00 | 0.00 | 0.00 | 69 | 1011.4 |
| 20260502022505 | 8 | 299 | 0.0 | 0.0 | 0.00 | 0.00 | 0.00 | 69 | 1011.3 |
| 20260502022008 | 8 | 299 | 0.0 | 0.0 | 0.00 | 0.00 | 0.00 | 69 | 1011.4 |
| 20260502021519 | 8 | 299 | 0.0 | 0.0 | 0.00 | 0.00 | 0.00 | 67 | 1011.5 |
| 20260502021009 | 8 | 299 | 0.0 | 0.0 | 0.00 | 0.00 | 0.00 | 66 | 1011.3 |
| 20260502020507 | 8 | 299 | 0.0 | 0.0 | 0.00 | 0.00 | 0.00 | 66 | 1011.4 |
| 20260502020004 | 8 | 299 | 0.0 | 0.0 | 0.00 | 0.00 | 0.00 | 66 | 1011.5 |
| 20260502015504 | 8 | 299 | 0.0 | 1.6 | 0.00 | 0.00 | 0.00 | 64 | 1011.5 |
| 20260502015003 | 9 | 299 | 0.0 | 1.6 | 0.00 | 0.00 | 0.00 | 63 | 1011.5 |
| 20260502014505 | 9 | 299 | 0.0 | 3.2 | 0.00 | 0.00 | 0.00 | 63 | 1011.5 |
| 20260502014004 | 9 | 306 | 0.0 | 3.2 | 0.00 | 0.00 | 0.00 | 61 | 1011.5 |
| 20260502013504 | 9 | 261 | 0.0 | 3.2 | 0.00 | 0.00 | 0.00 | 60 | 1011.5 |
| 20260502013014 | 10 | 324 | 0.0 | 4.8 | 0.00 | 0.00 | 0.00 | 62 | 1011.4 |
| 20260502012504 | 10 | 324 | 1.6 | 8.0 | 0.00 | 0.00 | 0.00 | 58 | 1011.4 |
| 20260502012009 | 10 | 321 | 3.2 | 9.7 | 0.00 | 0.00 | 0.00 | 56 | 1011.4 |
| 20260502011516 | 10 | 351 | 1.6 | 9.7 | 0.00 | 0.00 | 0.00 | 58 | 1011.4 |
| 20260502011007 | 10 | 319 | 0.0 | 4.8 | 0.00 | 0.00 | 0.00 | 59 | 1011.3 |
| 20260502010504 | 10 | 317 | 0.0 | 4.8 | 0.00 | 0.00 | 0.00 | 58 | 1011.2 |
| 20260502010023 | 10 | 304 | 1.6 | 8.0 | 0.00 | 0.00 | 0.00 | 55 | 1011.2 |
| 20260502005510 | 10 | 315 | 4.8 | 8.0 | 0.00 | 0.00 | 0.00 | 52 | 1011.2 |
| 20260502005010 | 10 | 309 | 1.6 | 8.0 | 0.00 | 0.00 | 0.00 | 53 | 1011.1 |
| 20260502004504 | 10 | 336 | 3.2 | 16.1 | 0.00 | 0.00 | 0.00 | 53 | 1011.1 |
| 20260502004003 | 10 | 352 | 6.4 | 16.1 | 0.00 | 0.00 | 0.00 | 56 | 1011.1 |
| 20260502003504 | 10 | 334 | 1.6 | 12.9 | 0.00 | 0.00 | 0.00 | 52 | 1011.0 |
| 20260502003012 | 10 | 293 | 0.0 | 14.5 | 0.00 | 0.00 | 0.00 | 54 | 1010.9 |
| 20260502002504 | 10 | 5 | 6.4 | 14.5 | 0.00 | 0.00 | 0.00 | 53 | 1010.8 |
| 20260502002009 | 10 | 16 | 4.8 | 8.0 | 0.00 | 0.00 | 0.00 | 56 | 1010.7 |
| 20260502001516 | 10 | 313 | 3.2 | 4.8 | 0.00 | 0.00 | 0.00 | 58 | 1010.7 |
| 20260502001007 | 10 | 5 | 0.0 | 3.2 | 0.00 | 0.00 | 0.00 | 61 | 1010.6 |
| 20260502000508 | 10 | 360 | 0.0 | 4.8 | 0.00 | 0.00 | 0.00 | 61 | 1010.5 |
| 20260502000021 | 10 | 360 | 1.6 | 9.7 | 0.00 | 0.00 | 0.00 | 56 | 1010.4 |
| 20260501235511 | 11 | 336 | 1.6 | 9.7 | 0.00 | 0.00 | 0.00 | 61 | 1010.4 |
| 20260501235008 | 11 | 352 | 1.6 | 9.7 | 0.00 | 0.00 | 0.00 | 62 | 1010.4 |
| 20260501234521 | 11 | 231 | 0.0 | 0.0 | 0.00 | 0.00 | 0.00 | 62 | 1010.4 |
| 20260501234007 | 11 | 230 | 0.0 | 0.0 | 0.00 | 0.00 | 0.00 | 58 | 1010.3 |
| 20260501233502 | 11 | 230 | 0.0 | 0.0 | 0.00 | 0.00 | 0.00 | 60 | 1010.2 |
| 20260501233008 | 11 | 231 | 0.0 | 0.0 | 0.00 | 0.00 | 0.00 | 58 | 1010.2 |
| 20260501232504 | 11 | 230 | 0.0 | 0.0 | 0.00 | 0.00 | 0.00 | 55 | 1010.0 |
| 20260501232002 | 12 | 289 | 0.0 | 3.2 | 0.00 | 0.00 | 0.00 | 55 | 1010.0 |
| 20260501231511 | 12 | 289 | 0.0 | 3.2 | 0.00 | 0.00 | 0.00 | 53 | 1009.9 |
| 20260501231004 | 12 | 291 | 0.0 | 3.2 | 0.00 | 0.00 | 0.00 | 54 | 1009.9 |
| 20260501230509 | 12 | 243 | 0.0 | 1.6 | 0.00 | 0.00 | 0.00 | 51 | 1009.8 |
| 20260501230016 | 12 | 282 | 0.0 | 0.0 | 0.00 | 0.00 | 0.00 | 53 | 1009.7 |
| 20260501225504 | 12 | 282 | 0.0 | 0.0 | 0.00 | 0.00 | 0.00 | 51 | 1009.7 |
| 20260501225004 | 12 | 282 | 0.0 | 1.6 | 0.00 | 0.00 | 0.00 | 50 | 1009.7 |
| 20260501224520 | 12 | 271 | 0.0 | 4.8 | 0.00 | 0.00 | 0.00 | 47 | 1009.6 |
| 20260501224005 | 12 | 271 | 1.6 | 4.8 | 0.00 | 0.00 | 0.00 | 46 | 1009.6 |
| 20260501223506 | 12 | 294 | 0.0 | 3.2 | 0.00 | 0.00 | 0.00 | 45 | 1009.6 |
| 20260501223024 | 12 | 294 | 0.0 | 4.8 | 0.00 | 0.00 | 0.00 | 40 | 1009.6 |
| 20260501222510 | 12 | 272 | 1.6 | 4.8 | 0.00 | 0.00 | 0.00 | 42 | 1009.6 |
| 20260501222003 | 13 | 290 | 0.0 | 6.4 | 0.00 | 0.00 | 0.00 | 42 | 1009.6 |
| 20260501221508 | 13 | 52 | 0.0 | 9.7 | 0.00 | 0.00 | 0.00 | 41 | 1009.6 |
| 20260501221003 | 13 | 232 | 3.2 | 11.3 | 0.00 | 0.00 | 0.00 | 40 | 1009.6 |
| 20260501220503 | 13 | 275 | 1.6 | 16.1 | 0.00 | 0.00 | 0.00 | 40 | 1009.5 |
| 20260501220011 | 13 | 200 | 1.6 | 16.1 | 0.00 | 0.00 | 0.00 | 42 | 1009.5 |
| 20260501215507 | 13 | 202 | 9.7 | 14.5 | 0.00 | 0.00 | 0.00 | 39 | 1009.5 |
| 20260501215008 | 13 | 240 | 3.2 | 11.3 | 0.00 | 0.00 | 0.00 | 40 | 1009.5 |
| 20260501214515 | 13 | 134 | 0.0 | 4.8 | 0.00 | 0.00 | 0.00 | 40 | 1009.5 |
| 20260501214008 | 13 | 212 | 0.0 | 11.3 | 0.00 | 0.00 | 0.00 | 38 | 1009.4 |
| 20260501213508 | 13 | 279 | 1.6 | 14.5 | 0.00 | 0.00 | 0.00 | 38 | 1009.5 |
| 20260501213021 | 13 | 297 | 3.2 | 14.5 | 0.00 | 0.00 | 0.00 | 39 | 1009.5 |
| 20260501212507 | 13 | 223 | 4.8 | 11.3 | 0.00 | 0.00 | 0.00 | 38 | 1009.4 |
| 20260501212007 | 13 | 272 | 4.8 | 11.3 | 0.00 | 0.00 | 0.00 | 40 | 1009.4 |
| 20260501211526 | 13 | 22 | 1.6 | 6.4 | 0.00 | 0.00 | 0.00 | 38 | 1009.4 |
| 20260501211004 | 13 | 340 | 4.8 | 6.4 | 0.00 | 0.00 | 0.00 | 37 | 1009.5 |
| 20260501210505 | 14 | 277 | 1.6 | 8.0 | 0.00 | 0.00 | 0.00 | 37 | 1009.6 |
| 20260501210012 | 14 | 292 | 0.0 | 8.0 | 0.00 | 0.00 | 0.00 | 38 | 1009.6 |
| 20260501205503 | 15 | 350 | 4.8 | 11.3 | 0.00 | 0.00 | 0.00 | 37 | 1009.7 |
| 20260501205005 | 15 | 169 | 1.6 | 14.5 | 0.00 | 0.00 | 0.00 | 39 | 1009.6 |
| 20260501204516 | 15 | 252 | 8.0 | 16.1 | 0.00 | 0.00 | 0.00 | 35 | 1009.5 |
| 20260501204007 | 14 | 360 | 4.8 | 16.1 | 0.00 | 0.00 | 0.00 | 36 | 1009.5 |
| 20260501203507 | 14 | 352 | 6.4 | 12.9 | 0.00 | 0.00 | 0.00 | 38 | 1009.4 |
| 20260501203021 | 14 | 249 | 4.8 | 11.3 | 0.00 | 0.00 | 0.00 | 39 | 1009.3 |
| 20260501202507 | 14 | 203 | 6.4 | 14.5 | 0.00 | 0.00 | 0.00 | 39 | 1009.4 |
| 20260501202008 | 13 | 234 | 1.6 | 14.5 | 0.00 | 0.00 | 0.00 | 41 | 1009.6 |
| 20260501201526 | 14 | 321 | 8.0 | 17.7 | 0.00 | 0.00 | 0.00 | 38 | 1009.6 |
| 20260501201010 | 15 | 309 | 4.8 | 17.7 | 0.00 | 0.00 | 0.00 | 37 | 1009.6 |
| 20260501200512 | 15 | 248 | 6.4 | 17.7 | 0.00 | 0.00 | 0.00 | 37 | 1009.5 |
| 20260501200026 | 15 | 27 | 1.6 | 12.9 | 0.00 | 0.00 | 0.00 | 38 | 1009.6 |
| 20260501195504 | 14 | 28 | 3.2 | 12.9 | 0.00 | 0.00 | 0.00 | 37 | 1009.6 |
| 20260501195005 | 14 | 205 | 4.8 | 24.1 | 0.00 | 0.00 | 0.00 | 41 | 1009.7 |
| 20260501194515 | 13 | 313 | 3.2 | 24.1 | 0.00 | 0.00 | 0.00 | 40 | 1009.9 |
| 20260501194005 | 13 | 302 | 8.0 | 24.1 | 0.00 | 0.00 | 0.00 | 40 | 1009.7 |
| 20260501193505 | 13 | 163 | 3.2 | 16.1 | 0.00 | 0.00 | 0.00 | 44 | 1009.6 |
| 20260501193021 | 13 | 307 | 8.0 | 16.1 | 0.00 | 0.00 | 0.00 | 39 | 1009.9 |
| 20260501192509 | 14 | 200 | 4.8 | 16.1 | 0.00 | 0.00 | 0.00 | 40 | 1009.9 |
| 20260501192008 | 14 | 284 | 6.4 | 16.1 | 0.00 | 0.00 | 0.00 | 37 | 1009.9 |
| 20260501191525 | 14 | 13 | 1.6 | 14.5 | 0.00 | 0.00 | 0.00 | 40 | 1009.8 |
| 20260501191012 | 14 | 281 | 4.8 | 14.5 | 0.00 | 0.00 | 0.00 | 41 | 1009.8 |
| 20260501190508 | 13 | 55 | 3.2 | 12.9 | 0.00 | 0.00 | 0.00 | 46 | 1009.9 |
| 20260501190027 | 13 | 187 | 1.6 | 19.3 | 0.00 | 0.00 | 0.00 | 44 | 1009.9 |
| 20260501185510 | 13 | 279 | 8.0 | 19.3 | 0.00 | 0.00 | 0.00 | 41 | 1009.9 |
| 20260501185011 | 12 | 352 | 3.2 | 17.7 | 0.00 | 0.00 | 0.00 | 42 | 1010.1 |
| 20260501184519 | 12 | 5 | 3.2 | 17.7 | 0.00 | 0.00 | 0.00 | 42 | 1010.2 |
| 20260501184005 | 12 | 340 | 6.4 | 22.5 | 0.00 | 0.00 | 0.00 | 42 | 1010.2 |
| 20260501183505 | 13 | 14 | 8.0 | 22.5 | 0.00 | 0.00 | 0.00 | 41 | 1010.2 |
| 20260501183018 | 13 | 38 | 6.4 | 16.1 | 0.00 | 0.00 | 0.00 | 42 | 1010.2 |
| 20260501182507 | 13 | 329 | 1.6 | 19.3 | 0.00 | 0.00 | 0.00 | 40 | 1010.4 |
| 20260501182007 | 13 | 177 | 6.4 | 24.1 | 0.00 | 0.00 | 0.00 | 41 | 1010.4 |
| 20260501181522 | 13 | 300 | 9.7 | 24.1 | 0.00 | 0.03 | 0.00 | 40 | 1010.4 |
| 20260501181010 | 13 | 238 | 6.4 | 24.1 | 0.00 | 0.03 | 0.00 | 41 | 1010.4 |
| 20260501180510 | 13 | 315 | 4.8 | 29.0 | 0.00 | 0.03 | 0.00 | 43 | 1010.4 |
| 20260501180033 | 12 | 29 | 3.2 | 29.0 | 0.00 | 0.03 | 0.00 | 42 | 1010.5 |
| 20260501175508 | 12 | 211 | 6.4 | 14.5 | 0.00 | 0.03 | 0.00 | 43 | 1010.6 |
| 20260501175016 | 12 | 226 | 3.2 | 17.7 | 0.00 | 0.03 | 0.00 | 46 | 1010.6 |
| 20260501174537 | 12 | 191 | 6.4 | 17.7 | 0.00 | 0.03 | 0.00 | 45 | 1010.5 |
| 20260501174006 | 12 | 345 | 9.7 | 17.7 | 0.00 | 0.03 | 0.00 | 43 | 1010.5 |
| 20260501173508 | 12 | 162 | 0.0 | 17.7 | 0.00 | 0.03 | 0.00 | 44 | 1010.5 |
| 20260501173015 | 12 | 284 | 6.4 | 22.5 | 0.00 | 0.03 | 0.00 | 41 | 1010.6 |
| 20260501172505 | 12 | 351 | 9.7 | 22.5 | 0.00 | 0.03 | 0.00 | 43 | 1010.7 |
| 20260501172008 | 12 | 360 | 8.0 | 24.1 | 0.00 | 0.03 | 0.00 | 43 | 1010.7 |
| 20260501171524 | 12 | 240 | 8.0 | 24.1 | 0.00 | 0.03 | 0.00 | 42 | 1010.6 |